| time (UTC) | temp C | wind direction | speed KPH | gust KPH | rain 1hr cm | rain 24hr cm | rain mn cm | humidity % | barometer mb |
| 20260503214144 | 15 | 9 | 8.0 | 12.9 | 0.00 | 0.00 | 0.00 | 33 | 1096.2 |
| 20260503213643 | 15 | 119 | 14.5 | 20.9 | 0.00 | 0.00 | 0.00 | 34 | 1095.9 |
| 20260503213139 | 15 | 325 | 6.4 | 9.7 | 0.00 | 0.00 | 0.00 | 36 | 1096.0 |
| 20260503212636 | 15 | 303 | 1.6 | 14.5 | 0.00 | 0.00 | 0.00 | 36 | 1095.8 |
| 20260503212134 | 15 | 295 | 9.7 | 12.9 | 0.00 | 0.00 | 0.00 | 35 | 1096.2 |
| 20260503211633 | 15 | 206 | 8.0 | 17.7 | 0.00 | 0.00 | 0.00 | 34 | 1096.0 |
| 20260503211133 | 15 | 315 | 12.9 | 20.9 | 0.00 | 0.00 | 0.00 | 34 | 1096.1 |
| 20260503210629 | 15 | 29 | 1.6 | 12.9 | 0.00 | 0.00 | 0.00 | 36 | 1096.0 |
| 20260503210126 | 15 | 260 | 12.9 | 16.1 | 0.00 | 0.00 | 0.00 | 34 | 1096.1 |
| 20260503205622 | 15 | 253 | 12.9 | 16.1 | 0.00 | 0.00 | 0.00 | 35 | 1096.2 |
| 20260503205118 | 15 | 287 | 9.7 | 16.1 | 0.00 | 0.00 | 0.00 | 35 | 1096.3 |
| 20260503204615 | 15 | 234 | 9.7 | 12.9 | 0.00 | 0.00 | 0.00 | 36 | 1096.3 |
| 20260503204113 | 15 | 295 | 8.0 | 16.1 | 0.00 | 0.00 | 0.00 | 34 | 1096.3 |
| 20260503203610 | 15 | 314 | 4.8 | 11.3 | 0.00 | 0.00 | 0.00 | 35 | 1096.7 |
| 20260503203107 | 15 | 233 | 8.0 | 9.7 | 0.00 | 0.00 | 0.00 | 36 | 1096.4 |
| 20260503202604 | 15 | 317 | 11.3 | 17.7 | 0.00 | 0.00 | 0.00 | 34 | 1096.4 |
| 20260503202102 | 15 | 227 | 8.0 | 17.7 | 0.00 | 0.00 | 0.00 | 35 | 1096.8 |
| 20260503201600 | 15 | 161 | 9.7 | 16.1 | 0.00 | 0.00 | 0.00 | 36 | 1096.7 |
| 20260503201057 | 14 | 356 | 6.4 | 11.3 | 0.00 | 0.00 | 0.00 | 36 | 1096.7 |
| 20260503200553 | 14 | 69 | 3.2 | 12.9 | 0.00 | 0.00 | 0.00 | 37 | 1096.9 |
| 20260503200050 | 15 | 226 | 14.5 | 17.7 | 0.00 | 0.00 | 0.00 | 35 | 1096.8 |
| 20260503195547 | 15 | 260 | 9.7 | 16.1 | 0.00 | 0.00 | 0.00 | 34 | 1096.9 |
| 20260503195044 | 14 | 294 | 8.0 | 27.4 | 0.00 | 0.00 | 0.00 | 36 | 1097.2 |
| 20260503194541 | 14 | 332 | 1.6 | 16.1 | 0.00 | 0.00 | 0.00 | 35 | 1097.3 |
| 20260503194041 | 15 | 306 | 6.4 | 20.9 | 0.00 | 0.00 | 0.00 | 35 | 1097.2 |
| 20260503193538 | 14 | 267 | 9.7 | 24.1 | 0.00 | 0.00 | 0.00 | 34 | 1097.3 |
| 20260503193033 | 13 | 357 | 3.2 | 11.3 | 0.00 | 0.00 | 0.00 | 35 | 1097.3 |
| 20260503192530 | 15 | 222 | 12.9 | 20.9 | 0.00 | 0.00 | 0.00 | 34 | 1097.4 |
| 20260503192025 | 14 | 332 | 8.0 | 16.1 | 0.00 | 0.00 | 0.00 | 37 | 1097.5 |
| 20260503191522 | 14 | 274 | 12.9 | 16.1 | 0.00 | 0.00 | 0.00 | 34 | 1097.5 |
| 20260503191019 | 14 | 153 | 1.6 | 9.7 | 0.00 | 0.00 | 0.00 | 38 | 1097.8 |
| 20260503190516 | 15 | 233 | 12.9 | 22.5 | 0.00 | 0.00 | 0.00 | 36 | 1097.8 |
| 20260503190014 | 14 | 152 | 9.7 | 16.1 | 0.00 | 0.00 | 0.00 | 35 | 1097.6 |
| 20260503185510 | 15 | 255 | 11.3 | 24.1 | 0.00 | 0.00 | 0.00 | 36 | 1097.9 |
| 20260503185009 | 14 | 249 | 6.4 | 20.9 | 0.00 | 0.00 | 0.00 | 37 | 1097.9 |
| 20260503184506 | 13 | 321 | 11.3 | 29.0 | 0.00 | 0.00 | 0.00 | 37 | 1098.1 |
| 20260503184002 | 13 | 332 | 12.9 | 17.7 | 0.00 | 0.00 | 0.00 | 37 | 1098.4 |
| 20260503183459 | 13 | 272 | 14.5 | 22.5 | 0.00 | 0.00 | 0.00 | 37 | 1098.1 |
| 20260503182956 | 13 | 184 | 11.3 | 16.1 | 0.00 | 0.00 | 0.00 | 39 | 1098.2 |
| 20260503182455 | 13 | 293 | 9.7 | 17.7 | 0.00 | 0.00 | 0.00 | 39 | 1098.4 |
| 20260503181952 | 13 | 268 | 1.6 | 11.3 | 0.00 | 0.00 | 0.00 | 39 | 1098.4 |
| 20260503181449 | 13 | 146 | 16.1 | 22.5 | 0.00 | 0.00 | 0.00 | 38 | 1098.3 |
| 20260503180945 | 14 | 337 | 1.6 | 14.5 | 0.00 | 0.00 | 0.00 | 36 | 1098.3 |
| 20260503180443 | 14 | 179 | 6.4 | 12.9 | 0.00 | 0.00 | 0.00 | 37 | 1098.5 |
| 20260503175940 | 13 | 166 | 4.8 | 6.4 | 0.00 | 0.00 | 0.00 | 37 | 1098.3 |
| 20260503175438 | 13 | 282 | 22.5 | 33.8 | 0.00 | 0.00 | 0.00 | 36 | 1098.7 |
| 20260503174933 | 13 | 228 | 4.8 | 14.5 | 0.00 | 0.00 | 0.00 | 37 | 1098.7 |
| 20260503174432 | 13 | 278 | 8.0 | 12.9 | 0.00 | 0.00 | 0.00 | 40 | 1098.6 |
| 20260503173932 | 13 | 207 | 11.3 | 14.5 | 0.00 | 0.00 | 0.00 | 37 | 1098.7 |
| 20260503173428 | 13 | 197 | 8.0 | 11.3 | 0.00 | 0.00 | 0.00 | 37 | 1099.0 |
| 20260503172925 | 12 | 284 | 6.4 | 9.7 | 0.00 | 0.00 | 0.00 | 39 | 1099.0 |
| 20260503172422 | 12 | 207 | 20.9 | 24.1 | 0.00 | 0.00 | 0.00 | 36 | 1099.0 |
| 20260503171918 | 13 | 181 | 4.8 | 20.9 | 0.00 | 0.00 | 0.00 | 40 | 1099.1 |
| 20260503171415 | 12 | 332 | 19.3 | 25.7 | 0.00 | 0.00 | 0.00 | 36 | 1099.0 |
| 20260503170913 | 13 | 257 | 20.9 | 25.7 | 0.00 | 0.00 | 0.00 | 36 | 1099.2 |
| 20260503170409 | 12 | 95 | 6.4 | 14.5 | 0.00 | 0.00 | 0.00 | 37 | 1099.3 |
| 20260503150801 | 10 | 225 | 4.8 | 12.9 | 0.00 | 0.00 | 0.00 | 40 | 1100.1 |
| 20260503150257 | 10 | 295 | 6.4 | 11.3 | 0.00 | 0.00 | 0.00 | 41 | 1100.0 |
| 20260503140222 | 8 | 281 | 6.4 | 12.9 | 0.00 | 0.00 | 0.00 | 52 | 1100.4 |
| 20260503131151 | 6 | 285 | 11.3 | 16.1 | 0.00 | 0.00 | 0.00 | 62 | 1100.8 |
| 20260503130648 | 6 | 5 | 4.8 | 12.9 | 0.00 | 0.00 | 0.00 | 65 | 1100.9 |
| 20260503130146 | 6 | 277 | 8.0 | 12.9 | 0.00 | 0.00 | 0.00 | 65 | 1100.8 |
| 20260503120112 | 2 | 36 | 0.0 | 1.6 | 0.00 | 0.00 | 0.00 | 96 | 1100.4 |
| 20260503110539 | 0 | 27 | 0.0 | 0.0 | 0.00 | 0.00 | 0.00 | 96 | 1100.0 |
| 20260503090426 | 0 | 36 | 0.0 | 0.0 | 0.00 | 0.00 | 0.00 | 97 | 1099.3 |
| 20260503081352 | 0 | 17 | 0.0 | 0.0 | 0.00 | 0.00 | 0.00 | 96 | 1099.1 |
| 20260503080849 | 0 | 17 | 0.0 | 0.0 | 0.00 | 0.00 | 0.00 | 95 | 1099.5 |
| 20260503080346 | 0 | 12 | 0.0 | 0.0 | 0.00 | 0.00 | 0.00 | 95 | 1099.3 |
| 20260503072823 | 0 | 19 | 0.0 | 0.0 | 0.00 | 0.00 | 0.00 | 96 | 1099.1 |
| 20260503072319 | 0 | 19 | 0.0 | 0.0 | 0.00 | 0.00 | 0.00 | 96 | 1099.0 |
| 20260503071815 | 0 | 19 | 0.0 | 0.0 | 0.00 | 0.00 | 0.00 | 96 | 1099.2 |
| 20260503071313 | 0 | 19 | 0.0 | 0.0 | 0.00 | 0.00 | 0.00 | 96 | 1099.1 |
| 20260503070809 | 0 | 18 | 0.0 | 0.0 | 0.00 | 0.00 | 0.00 | 96 | 1098.9 |
| 20260503070307 | 0 | 18 | 0.0 | 0.0 | 0.00 | 0.00 | 0.00 | 96 | 1099.0 |
| 20260503060238 | 0 | 18 | 0.0 | 0.0 | 0.00 | 0.00 | 0.00 | 96 | 1099.1 |
| 20260503054725 | 0 | 17 | 0.0 | 0.0 | 0.00 | 0.00 | 0.00 | 96 | 1099.2 |
| 20260503054222 | 0 | 18 | 0.0 | 0.0 | 0.00 | 0.00 | 0.00 | 96 | 1099.2 |
| 20260503053720 | 0 | 21 | 0.0 | 0.0 | 0.00 | 0.00 | 0.00 | 95 | 1099.3 |
| 20260503053219 | 0 | 21 | 0.0 | 0.0 | 0.00 | 0.00 | 0.00 | 95 | 1099.3 |
| 20260503052714 | 0 | 21 | 0.0 | 0.0 | 0.00 | 0.00 | 0.00 | 95 | 1099.5 |
| 20260503052211 | 0 | 21 | 0.0 | 0.0 | 0.00 | 0.00 | 0.00 | 95 | 1099.3 |
| 20260503051706 | 0 | 20 | 0.0 | 1.6 | 0.00 | 0.00 | 0.00 | 95 | 1099.3 |
| 20260503051204 | 0 | 22 | 0.0 | 0.0 | 0.00 | 0.00 | 0.00 | 95 | 1099.3 |
| 20260503050700 | 0 | 20 | 0.0 | 0.0 | 0.00 | 0.00 | 0.00 | 95 | 1099.3 |
| 20260503050157 | 0 | 19 | 0.0 | 0.0 | 0.00 | 0.00 | 0.00 | 95 | 1099.4 |
| 20260503045655 | 0 | 10 | 0.0 | 1.6 | 0.00 | 0.00 | 0.00 | 95 | 1099.6 |
| 20260503045152 | 0 | 21 | 0.0 | 0.0 | 0.00 | 0.00 | 0.00 | 95 | 1099.3 |
| 20260503044648 | 0 | 20 | 0.0 | 0.0 | 0.00 | 0.00 | 0.00 | 95 | 1099.7 |
| 20260503044146 | 0 | 20 | 0.0 | 0.0 | 0.00 | 0.00 | 0.00 | 95 | 1099.6 |
| 20260503043642 | 0 | 20 | 0.0 | 0.0 | 0.00 | 0.00 | 0.00 | 94 | 1099.5 |
| 20260503043139 | 0 | 20 | 0.0 | 0.0 | 0.00 | 0.00 | 0.00 | 94 | 1099.4 |
| 20260503042636 | 1 | 0 | 1.6 | 1.6 | 0.00 | 0.00 | 0.00 | 95 | 1099.7 |
| 20260503042132 | 0 | 19 | 0.0 | 0.0 | 0.00 | 0.00 | 0.00 | 96 | 1099.5 |
| 20260503041629 | 0 | 12 | 0.0 | 0.0 | 0.00 | 0.00 | 0.00 | 95 | 1099.6 |
| 20260503041126 | 0 | 20 | 0.0 | 0.0 | 0.00 | 0.00 | 0.00 | 94 | 1099.6 |
| 20260503040624 | 0 | 15 | 0.0 | 0.0 | 0.00 | 0.00 | 0.00 | 94 | 1099.7 |
| 20260503040121 | 0 | 17 | 0.0 | 0.0 | 0.00 | 0.05 | 0.05 | 94 | 1099.7 |
| 20260503035617 | 0 | 12 | 0.0 | 0.0 | 0.00 | 0.05 | 0.05 | 94 | 1099.4 |
| 20260503035115 | 0 | 16 | 0.0 | 0.0 | 0.00 | 0.05 | 0.05 | 94 | 1099.6 |
| 20260503034612 | 0 | 18 | 0.0 | 1.6 | 0.00 | 0.05 | 0.05 | 93 | 1099.8 |
| 20260503034109 | 0 | 7 | 1.6 | 1.6 | 0.00 | 0.05 | 0.05 | 93 | 1099.6 |
| 20260503033607 | 0 | 7 | 0.0 | 1.6 | 0.00 | 0.05 | 0.05 | 93 | 1099.6 |
| 20260503033104 | 0 | 8 | 0.0 | 0.0 | 0.00 | 0.05 | 0.05 | 92 | 1099.6 |
| 20260503032602 | 0 | 358 | 1.6 | 1.6 | 0.00 | 0.05 | 0.05 | 92 | 1099.7 |
| 20260503032100 | 0 | 14 | 1.6 | 1.6 | 0.00 | 0.05 | 0.05 | 91 | 1099.6 |
| 20260503031558 | 0 | 12 | 0.0 | 1.6 | 0.00 | 0.05 | 0.05 | 90 | 1099.6 |
| 20260503031055 | 0 | 5 | 1.6 | 1.6 | 0.00 | 0.05 | 0.05 | 89 | 1099.6 |
| 20260503030550 | 1 | 16 | 0.0 | 1.6 | 0.00 | 0.05 | 0.05 | 88 | 1099.6 |
| 20260503030048 | 1 | 356 | 1.6 | 1.6 | 0.00 | 0.05 | 0.05 | 88 | 1099.7 |
| 20260503025545 | 1 | 359 | 1.6 | 1.6 | 0.00 | 0.05 | 0.05 | 86 | 1099.6 |
| 20260503025043 | 2 | 0 | 1.6 | 1.6 | 0.00 | 0.05 | 0.05 | 86 | 1099.8 |
| 20260503024538 | 2 | 342 | 0.0 | 1.6 | 0.00 | 0.05 | 0.05 | 86 | 1099.6 |
| 20260503024036 | 2 | 24 | 0.0 | 1.6 | 0.00 | 0.05 | 0.05 | 86 | 1099.6 |
| 20260503023532 | 2 | 2 | 0.0 | 1.6 | 0.00 | 0.05 | 0.05 | 85 | 1100.0 |
| 20260503023030 | 2 | 14 | 0.0 | 1.6 | 0.00 | 0.05 | 0.05 | 85 | 1099.7 |
| 20260503022526 | 2 | 10 | 0.0 | 1.6 | 0.00 | 0.05 | 0.05 | 84 | 1100.1 |
| 20260503022021 | 2 | 16 | 0.0 | 1.6 | 0.00 | 0.05 | 0.05 | 84 | 1099.8 |
| 20260503021518 | 2 | 17 | 1.6 | 1.6 | 0.00 | 0.05 | 0.05 | 83 | 1099.7 |
| 20260503021015 | 3 | 357 | 1.6 | 1.6 | 0.00 | 0.05 | 0.05 | 81 | 1099.6 |
| 20260503020512 | 3 | 17 | 0.0 | 0.0 | 0.00 | 0.05 | 0.05 | 82 | 1099.8 |
| 20260503020009 | 3 | 16 | 0.0 | 0.0 | 0.00 | 0.05 | 0.05 | 82 | 1099.7 |
| 20260503015505 | 3 | 15 | 0.0 | 0.0 | 0.00 | 0.05 | 0.05 | 80 | 1099.6 |
| 20260503015002 | 3 | 23 | 0.0 | 0.0 | 0.00 | 0.05 | 0.05 | 79 | 1099.7 |
| 20260503014458 | 4 | 19 | 0.0 | 0.0 | 0.00 | 0.05 | 0.05 | 78 | 1099.7 |
| 20260503013956 | 4 | 18 | 0.0 | 0.0 | 0.00 | 0.05 | 0.05 | 77 | 1099.8 |
| 20260503013453 | 4 | 17 | 0.0 | 0.0 | 0.00 | 0.05 | 0.05 | 75 | 1099.8 |
| 20260503012950 | 4 | 17 | 0.0 | 0.0 | 0.00 | 0.05 | 0.05 | 71 | 1100.2 |
| 20260503012449 | 5 | 19 | 0.0 | 0.0 | 0.00 | 0.05 | 0.05 | 71 | 1099.7 |
| 20260503011944 | 5 | 14 | 1.6 | 1.6 | 0.00 | 0.05 | 0.05 | 71 | 1099.7 |
| 20260503011441 | 5 | 14 | 0.0 | 3.2 | 0.00 | 0.05 | 0.05 | 69 | 1099.5 |
| 20260503010938 | 5 | 1 | 0.0 | 1.6 | 0.00 | 0.05 | 0.05 | 70 | 1099.5 |
| 20260503010435 | 5 | 17 | 0.0 | 0.0 | 0.00 | 0.05 | 0.05 | 70 | 1099.5 |
| 20260503005932 | 5 | 11 | 1.6 | 3.2 | 0.00 | 0.05 | 0.05 | 70 | 1099.5 |
| 20260503005430 | 5 | 17 | 0.0 | 1.6 | 0.00 | 0.05 | 0.05 | 70 | 1099.4 |
| 20260503004926 | 5 | 17 | 0.0 | 0.0 | 0.00 | 0.05 | 0.05 | 70 | 1099.6 |
| 20260503004423 | 5 | 7 | 0.0 | 3.2 | 0.00 | 0.05 | 0.05 | 69 | 1099.5 |
| 20260503003921 | 5 | 11 | 0.0 | 3.2 | 0.00 | 0.05 | 0.05 | 69 | 1099.3 |
| 20260503003417 | 5 | 315 | 1.6 | 3.2 | 0.00 | 0.05 | 0.05 | 70 | 1099.3 |
| 20260503002915 | 5 | 18 | 0.0 | 1.6 | 0.00 | 0.05 | 0.05 | 70 | 1099.4 |
| 20260503002412 | 5 | 8 | 1.6 | 4.8 | 0.00 | 0.05 | 0.05 | 70 | 1099.3 |
| 20260503001908 | 5 | 19 | 1.6 | 3.2 | 0.00 | 0.05 | 0.05 | 70 | 1099.0 |
| 20260503001404 | 5 | 9 | 0.0 | 1.6 | 0.00 | 0.05 | 0.05 | 69 | 1099.3 |
| 20260503000902 | 5 | 8 | 0.0 | 1.6 | 0.00 | 0.05 | 0.05 | 70 | 1099.3 |
| 20260503000400 | 5 | 347 | 3.2 | 3.2 | 0.00 | 0.05 | 0.05 | 67 | 1099.0 |
| 20260502235856 | 5 | 15 | 0.0 | 1.6 | 0.00 | 0.05 | 0.05 | 68 | 1099.0 |
| 20260502235353 | 5 | 10 | 1.6 | 1.6 | 0.00 | 0.05 | 0.05 | 66 | 1098.9 |
| 20260502234850 | 5 | 355 | 1.6 | 3.2 | 0.00 | 0.05 | 0.05 | 65 | 1099.1 |
| 20260502234347 | 5 | 303 | 4.8 | 4.8 | 0.00 | 0.05 | 0.05 | 66 | 1099.1 |
| 20260502233844 | 5 | 5 | 1.6 | 3.2 | 0.00 | 0.05 | 0.05 | 66 | 1099.0 |
| 20260502233339 | 5 | 5 | 1.6 | 4.8 | 0.00 | 0.05 | 0.05 | 65 | 1099.0 |
| 20260502232837 | 5 | 340 | 3.2 | 4.8 | 0.00 | 0.05 | 0.05 | 64 | 1099.1 |
| 20260502232333 | 5 | 12 | 3.2 | 6.4 | 0.00 | 0.05 | 0.05 | 64 | 1098.9 |
| 20260502231829 | 5 | 314 | 11.3 | 14.5 | 0.00 | 0.05 | 0.05 | 63 | 1098.7 |
| 20260502231328 | 5 | 347 | 6.4 | 9.7 | 0.00 | 0.05 | 0.05 | 63 | 1098.9 |
| 20260502230825 | 5 | 309 | 4.8 | 6.4 | 0.00 | 0.05 | 0.05 | 64 | 1098.9 |
| 20260502230323 | 5 | 14 | 1.6 | 6.4 | 0.00 | 0.05 | 0.05 | 64 | 1099.0 |
| 20260502225820 | 6 | 303 | 6.4 | 11.3 | 0.00 | 0.05 | 0.05 | 65 | 1099.0 |
| 20260502225317 | 6 | 344 | 3.2 | 4.8 | 0.00 | 0.05 | 0.05 | 66 | 1099.0 |
| 20260502224813 | 6 | 5 | 4.8 | 4.8 | 0.00 | 0.05 | 0.05 | 66 | 1099.0 |
| 20260502224309 | 6 | 13 | 4.8 | 9.7 | 0.00 | 0.05 | 0.05 | 67 | 1099.1 |
| 20260502223807 | 6 | 10 | 4.8 | 6.4 | 0.00 | 0.05 | 0.05 | 68 | 1098.7 |
| 20260502223305 | 6 | 4 | 3.2 | 9.7 | 0.00 | 0.05 | 0.05 | 67 | 1099.0 |
| 20260502222802 | 6 | 10 | 3.2 | 4.8 | 0.00 | 0.05 | 0.05 | 68 | 1098.9 |
| 20260502222300 | 6 | 10 | 4.8 | 4.8 | 0.00 | 0.05 | 0.05 | 67 | 1099.0 |
| 20260502221755 | 6 | 21 | 1.6 | 11.3 | 0.00 | 0.05 | 0.05 | 67 | 1099.1 |
| 20260502221252 | 6 | 346 | 8.0 | 11.3 | 0.00 | 0.05 | 0.05 | 68 | 1098.9 |
| 20260502220749 | 6 | 359 | 6.4 | 11.3 | 0.00 | 0.05 | 0.05 | 66 | 1098.9 |
| 20260502220244 | 6 | 347 | 3.2 | 4.8 | 0.00 | 0.05 | 0.05 | 68 | 1099.3 |
| 20260502215741 | 5 | 12 | 6.4 | 11.3 | 0.00 | 0.05 | 0.05 | 67 | 1099.1 |
| 20260502215239 | 5 | 356 | 3.2 | 4.8 | 0.00 | 0.05 | 0.05 | 68 | 1099.1 |
| 20260502214736 | 5 | 314 | 6.4 | 6.4 | 0.00 | 0.05 | 0.05 | 68 | 1099.0 |
| 20260502214234 | 5 | 8 | 4.8 | 9.7 | 0.00 | 0.05 | 0.05 | 68 | 1098.9 |